Location: Brest
(52.1000°N, 23.7000°E)
Time: 14:57:40
(UTC+02:00)

GENESIS II - Visible Passes

Search period start: 18 December 2017 00:00
Search period end: 28 December 2017 00:00
Orbit: 510 x 523 km, 64.5° (Epoch: 18 December)

Date Brightness Start Highest point End Pass type
(mag) Time Alt. Az. Time Alt. Az. Time Alt. Az.
18 Dec 6.5 06:05:22 14° N 06:05:22 14° N 06:07:16 10° NNE visible
18 Dec 6.1 07:41:14 10° NNW 07:44:15 20° NNE 07:47:14 10° ENE visible
19 Dec 6.6 05:50:24 13° N 05:50:24 13° N 05:51:51 10° NNE visible
19 Dec 6.1 07:25:48 10° NNW 07:28:49 20° NNE 07:31:50 10° ENE visible
20 Dec 6.8 05:35:25 13° NNE 05:35:25 13° NNE 05:36:27 10° NNE visible
20 Dec 6.1 07:10:25 10° NNW 07:13:25 21° NNE 07:16:26 10° ENE visible
21 Dec 7.0 05:20:27 12° NNE 05:20:27 12° NNE 05:21:01 10° NNE visible
21 Dec 6.1 06:55:27 12° NNW 06:58:00 21° NNE 07:01:02 10° ENE visible
22 Dec 7.2 05:05:29 10° NNE 05:05:29 10° NNE 05:05:37 10° NNE visible
22 Dec 6.1 06:40:29 15° NNW 06:42:34 21° NNE 06:45:38 10° ENE visible
23 Dec 6.1 06:25:31 17° N 06:27:09 21° NNE 06:30:14 10° ENE visible
24 Dec 6.1 06:10:35 19° N 06:11:44 22° NNE 06:14:50 10° ENE visible
24 Dec 4.3 07:46:04 10° NW 07:50:01 81° NE 07:53:56 10° SE visible
25 Dec 6.0 05:55:40 21° N 05:56:19 22° NNE 05:59:26 10° ENE visible
25 Dec 4.2 07:30:40 10° NW 07:34:34 83° NE 07:38:30 10° SE visible
26 Dec 6.1 05:40:46 22° NNE 05:40:53 22° NNE 05:44:02 10° ENE visible
26 Dec 4.2 07:15:46 14° NW 07:19:08 85° NE 07:23:04 10° SE visible
27 Dec 6.3 05:25:54 22° NE 05:25:54 22° NE 05:28:37 10° ENE visible
27 Dec 4.2 07:00:54 19° NW 07:03:42 87° NE 07:07:37 10° SE visible
